Nowra Airport

Jump to: basic info | weather | frequencies | runways | comments

Related pages: nearby airports | nearby navaids | notams | map

Basic information (top)

Codes: NOA YSNW
Location: lon -34.948898, lat 150.537003, elev 400 ft / 122 m msl
Status: medium_airport

Weather (top)

Current conditions (rec'd 2014/12/22 20:00Z):

YSNW 222000Z AUTO 01003KT 9999 // SCT120 20/19 Q1014

Airport forecast for Sydney Kingsford Smith International Airport 68nm (126km) NNE (rec'd 2014/12/22 18:11Z):

TAF YSSY 221700Z 2218/2324 03015KT 9999 FEW020 BKN120 
     FM222000 01012KT 9999 -SHRA FEW010 BKN100 
     FM230200 04018KT 9999 -SHRA SCT030 
     FM231000 01012KT 9999 -SHRA FEW010 SCT100 
     FM231900 18015KT 9999 -SHRA FEW010 SCT020 BKN080 PROB30 
      TEMPO 2302/2309 VRB25G40KT 3000 TSRA SCT010 SCT050CB 
      RMK

Frequencies (top)

Verify before use: may be inaccurate or out of date.

APP: 123.5 MHz (APP)
ATIS: 28.04 MHz (ATIS)
CLD: 128.35 MHz (CLNC DEL)
CTAF: 118.85 MHz (CTAF)
FSS: 121.2 MHz (MELBOURNE CNTR)
GND: 135.85 MHz (GND)
TWR: 118.85 MHz (TWR)

Runways (top)

03/21: 6,713 x 148 ft (2,046 x 45 m) — paved — lighted

08/26: 6,870 x 148 ft (2,094 x 45 m) — paved — lighted — threshold 26 displaced 298 ft (91 m)

Latest comments (top)

No comments yet for Nowra Airport

More... (top)

See also NOTAMs and nearby airports and navaids, or visit the Nowra Airport page at the main OurAirports website..